Regional Weather Roundup
Issued by NWS Kansas City/Pleasant Hill, MO

Home | Current Version | Previous Version | Text Only | Print | Product List | Glossary On
Versions: 1 2 3 4 5 6 7 8 9 10 11 12 13 14 15 16 17 18 19 20 21 22 23 24 25 26 27 28 29 30 31 32 33 34 35 36 37 38 39 40 41 42 43 44 45 46 47 48 49 50
000
ASUS43 KEAX 280311
RWREAX

WEATHER ROUNDUP FOR EASTERN KANSAS AND NORTHWEST MISSOURI
NATIONAL WEATHER SERVICE KANSAS CITY/PLEASANT HILL MO
1000 PM CDT WED AUG 27 2014

KSZ040-057-103>105-MOZ028-029-037-043-280400-
...KANSAS CITY METROPOLITAN AREA...

CITY           SKY/WX    TMP DP  RH WIND       PRES   REMARKS
K.C. INTL      CLOUDY    79  72  79 E9        30.05S
K.C. DOWNTOWN  CLOUDY    81  73  76 E10       30.03S
LEES SUMMIT    MOCLDY    78  72  81 E5        30.06S
OLATHE - IXD   CLOUDY    80  71  74 E8        30.05R
OLATHE - OJC   CLOUDY    79  72  79 E9        30.04S
LAWRENCE       CLOUDY    81  73  76 E5        30.03S

$$

MOZ001>008-011>017-020>025-030>033-038>040-044>046-053-054-280400-
...NORTHERN AND CENTRAL MISSOURI...

CITY           SKY/WX    TMP DP  RH WIND       PRES   REMARKS
ST. JOSEPH     CLOUDY    75  71  87 E7        30.06R
MOSBY          CLOUDY    77  70  78 CALM      30.05S
WHITEMAN AFB   PTCLDY    75  56  50 E3        30.05R
CLINTON        PTCLDY    79  75  89 CALM      30.05R
SEDALIA        PTCLDY    77  72  84 SE5       30.06R
WARSAW         NOT AVBL
MARSHALL       MOCLDY    79  77  94 E3        30.07S
CHILLICOTHE      N/A     75  71  87 NE3       30.09R
MOBERLY        PTCLDY    73  68  83 NE3       30.08S
KIRKSVILLE     MOCLDY    73  70  90 NE3       30.10R

$$

MOZ041-047>049-056>058-063>065-088>090-097-280400-
...EASTERN AND SOUTHERN MISSOURI...

CITY           SKY/WX    TMP DP  RH WIND       PRES   REMARKS
ST. LOUIS INTL LGT RAIN  75  71  87 E9        30.08R
SPIRIT OF STL  CLOUDY    71  69  93 CALM      30.06R
COLUMBIA       CLEAR     73  69  87 E5        30.06F
JEFFERSON CITY CLEAR     73  69  87 SE5       30.06R
MEXICO         PTCLDY   N/A N/A N/A CALM      30.07S
HANNIBAL       MOCLDY    77  73  88 CALM      30.08R
ROLLA          PTCLDY    73  69  87 SE9       30.07R
LEBANON        PTCLDY    77  68  73 E3        30.09R
OSAGE BEACH    CLEAR     75  66  73 NE5       30.07R
SPRINGFIELD    MOCLDY    80  67  64 E6        30.06R
BRANSON        MOCLDY    81  68  65 CALM      30.09R
NEVADA         PTCLDY    75  66  73 CALM      30.05R
JOPLIN         MOCLDY    79  68  69 E5        30.05R
WEST PLAINS    PTCLDY    75  67  76 CALM      30.10R

$$

IAZ060-094-KSZ022-034>040-054-083-096-NEZ052-066-093-280400-
...KANSAS...SOUTHEAST NEBRASKA AND IOWA...

CITY           SKY/WX    TMP DP  RH WIND       PRES   REMARKS
TOPEKA         MOCLDY    80  74  81 E6        30.03R
MANHATTAN      CLOUDY    81  71  71 E8        30.01R
EMPORIA        MOCLDY    80  71  74 E7        30.02R
CHANUTE        PTCLDY    81  67  62 E10       30.04R
WICHITA        CLOUDY    84  64  50 SE10      30.00R
OMAHA          CLOUDY    73  68  84 SE6       30.07R
LINCOLN        CLOUDY    73  70  90 E7        30.05R
FALLS CITY     MOCLDY    73  70  90 E8        30.04R
LAMONI         MOCLDY    72  69  90 NE3       30.10R
DES MOINES     CLOUDY    73  68  84 E3        30.10R

$$




USA.gov is the U.S. government's official web portal to all federal, state and local government web resources and services.